Regional Weather Roundup
Issued by NWS Kansas City/Pleasant Hill, MO

Home | Current Version | Previous Version | Graphics & Text | Print | Product List | Glossary Off
Versions: 1 2 3 4 5 6 7 8 9 10 11 12 13 14 15 16 17 18 19 20 21 22 23 24 25 26 27 28 29 30 31 32 33 34 35 36 37 38 39 40 41 42 43 44 45 46 47 48 49 50

000
ASUS43 KEAX 201810
RWREAX

WEATHER ROUNDUP FOR EASTERN KANSAS AND NORTHWEST MISSOURI
NATIONAL WEATHER SERVICE KANSAS CITY/PLEASANT HILL MO
1200 PM CST FRI JAN 20 2017

KSZ040-057-103>105-MOZ028-029-037-043-201900-
...KANSAS CITY METROPOLITAN AREA...

CITY           SKY/WX    TMP DP  RH WIND       PRES   REMARKS
K.C. INTL      FOG       47  45  93 SE8       29.52F VSB 1/2
6HR MIN TEMP:  43; 6HR MAX TEMP:  47; 6HR PCP: TRACE;

K.C. DOWNTOWN  CLOUDY    50  48  93 E5        29.52F
6HR MIN TEMP:  45; 6HR MAX TEMP:  50;

LEES SUMMIT    CLOUDY    48  48 100 SE8       29.52F FOG
6HR MIN TEMP:  45; 6HR MAX TEMP:  48;

OLATHE - IXD   FOG       49  48  97 SE8       29.51F VSB 1
6HR MIN TEMP:  45; 6HR MAX TEMP:  49;

OLATHE - OJC   CLOUDY    48  48 100 SE7       29.51F FOG
6HR MIN TEMP:  44; 6HR MAX TEMP:  48;

LAWRENCE       CLOUDY    49  49 100 E7        29.50F FOG

$$

MOZ001>008-011>017-020>025-030>033-038>040-044>046-053-054-201900-
...NORTHERN AND CENTRAL MISSOURI...

CITY           SKY/WX    TMP DP  RH WIND       PRES   REMARKS
ST. JOSEPH     CLOUDY    48  48 100 CALM      29.53F
6HR MIN TEMP:  42; 6HR MAX TEMP:  48;

MOSBY          CLOUDY    46  46 100 E5        29.53F FOG
WARRENSBURG    CLOUDY    50  50 100 SE8       29.53F
WHITEMAN AFB   PTSUNNY   50  50 100 S6        29.52F
CLINTON        CLOUDY    52  52 100 SE10      29.54F
SEDALIA        CLOUDY    52  50  93 SE8       29.56F
6HR MIN TEMP:  44; 6HR MAX TEMP:  52;

WARSAW         NOT AVBL
CHILLICOTHE      N/A     45  45 100 E5        29.57F
6HR MIN TEMP:  41; 6HR MAX TEMP:  45;

KIRKSVILLE     CLOUDY    45  45 100 E8        29.58F
6HR MIN TEMP:  39; 6HR MAX TEMP:  46;


$$

MOZ041-047>049-056>058-063>065-088>090-097-201900-
...EASTERN AND SOUTHERN MISSOURI...

CITY           SKY/WX    TMP DP  RH WIND       PRES   REMARKS
ST. LOUIS INTL CLOUDY    53  47  79 S13       29.62F
6HR MIN TEMP:  48; 6HR MAX TEMP:  53; 6HR PCP: TRACE;

SPIRIT OF STL  CLOUDY    52  49  89 S6        29.61F
COLUMBIA       CLOUDY    51  50  96 S10       29.58F
JEFFERSON CITY CLOUDY    50  47  89 SE10      29.60F
ROLLA          CLOUDY    50  48  93 S9G20     29.59F
OSAGE BEACH    CLOUDY    51  47  86 S12       29.58F
SPRINGFIELD    MOSUNNY   57  48  72 SE20      29.51F
BRANSON        PTSUNNY   59  48  67 SE10      29.57F
JOPLIN         MOSUNNY   61  47  59 S17       29.49F
WEST PLAINS    CLOUDY    53  49  86 S8        29.61F

$$

IAZ060-094-KSZ022-034>040-054-083-096-NEZ052-066-093-201900-
...KANSAS...SOUTHEAST NEBRASKA AND IOWA...

CITY           SKY/WX    TMP DP  RH WIND       PRES   REMARKS
TOPEKA         CLOUDY    48  46  93 E6        29.50F FOG
6HR MIN TEMP:  44; 6HR MAX TEMP:  48; 6HR PCP:  0.01;

MANHATTAN      CLOUDY    49  47  93 NE6       29.47F
EMPORIA        CLOUDY    48  48 100 SE7       29.46F FOG
CHANUTE        CLOUDY    53  48  83 SE13      29.48F
WICHITA        CLOUDY    50  46  86 S13       29.47F FOG
OMAHA          CLOUDY    43  39  86 SE6       29.52F
LINCOLN        CLOUDY    42  41  96 E7        29.52F
FALLS CITY     FOG       44  43  96 E5        29.52F VSB 1/4
LAMONI         CLOUDY    41  41 100 E6        29.55F FOG
DES MOINES     CLOUDY    41  40  96 E6        29.57F FOG

$$




USA.gov is the U.S. government's official web portal to all federal, state and local government web resources and services.